{"data":{"norad_id":68897,"epoch":"2026-09-19T18:37:26.906304Z","epoch_age_seconds":77996,"freshness":"FRESH","line1":"1 68897U 26097C   26262.77600586  .00017824  00000+0  55296-3 0  9990","line2":"2 68897  97.2866  96.9697 0001927  88.2433 271.9031 15.33453345 21980","mean_motion":15.33453345,"eccentricity":0.0001927,"inclination_deg":97.2866,"raan_deg":96.9697,"arg_perigee_deg":88.2433,"mean_anomaly_deg":271.9031,"bstar":0.00055296,"rev_number":2198,"period_min":93.905693622521,"perigee_km":464.19957335681,"apogee_km":466.83711812706,"semimajor_km":6843.6553457419,"source":"CELESTRAK","updated_at":"2026-09-20T09:00:44.045925Z"}}